Location: Coopersdale
(40.3556°N, 78.9372°W)
Time: 00:31:45
(UTC+00:00)

Transit 4A - Pass Details

Date: 23 January 2021
Orbit: 867 x 978 km, 66.8° (Epoch: 07 March)

Event Time Altitude Azimuth Distance (km) Brightness Sun altitude
Rises 22:39:27 0° 160° (SSE) 3,650 11.0 -3.6°
Reaches altitude 10° 22:42:55 10° 142° (SE) 2,716 10.2 -4.2°
Maximum altitude 22:46:51 17° 103° (ESE) 2,234 9.4 -4.9°
Drops below altitude 10° 22:50:49 10° 64° (ENE) 2,728 9.7 -5.6°
Enters shadow 22:52:20 - 55° (NE) 3,107 10.0 -5.9°
Sets 22:54:16 0° 46° (NE) 3,673 - -6.2°
